Location: Eaton Estates
(41.3089°N, 82.0057°W)
Time: 08:38:39
(UTC+00:00)

Meteor 1-22 Rocket - Pass Details

Date: 17 June 2021
Orbit: 787 x 941 km, 81.2° (Epoch: 27 July)

Event Time Altitude Azimuth Distance (km) Brightness Sun altitude
Rises 01:37:18 0° 350° (N) 3,559 8.3 -6.0°
Reaches altitude 10° 01:39:49 10° 351° (N) 2,594 7.5 -6.4°
Maximum altitude 01:45:45 85° 80° (E) 888 4.3 -7.2°
Drops below altitude 10° 01:51:24 10° 170° (S) 2,473 6.2 -8.0°
Enters shadow 01:53:14 - 170° (S) 3,179 6.7 -8.3°
